"Pseudo-MPEC" for P11Zu8t

Created 2024 Oct 2 7:22:10 UT using Find_Orb

Click here for an explanation of pseudo-MPECs

 
 Astrometry: 
     P11Zu8t* C2024 09 28.45420701 58 23.524-24 45 00.04   ~9SL7 21.89wXNEOCPF51
     P11Zu8t  C2024 09 28.46398101 58 23.285-24 45 01.86   ~9SL7 22.27wXNEOCPF51
     P11Zu8t  C2024 09 28.47376901 58 23.067-24 45 03.68   ~9SL7 22.04wXNEOCPF51
     P11Zu8t 3C2024 09 29.48456101 58 03.134-24 47 48.52   ~9TLM 21.76GVNEOCPT14
     P11Zu8t 3C2024 09 29.48553601 58 03.109-24 47 48.66   ~9TLM 21.84GVNEOCPT14
     P11Zu8t 3C2024 09 29.48651501 58 03.083-24 47 48.81   ~9TLM 21.84GVNEOCPT14
     P11Zu8t |C2024 10 02.25498001 56 58.000-24 52 45.60   ~A277 21.8 GVNEOCP807
     P11Zu8t |C2024 10 02.26052001 56 57.820-24 52 46.20   ~A277 21.8 GVNEOCP807
     P11Zu8t |C2024 10 02.26608001 56 57.650-24 52 46.60   ~A277 21.8 GVNEOCP807

Station data:
(807) Cerro Tololo Observatory, La Serena  (S30.169133 W70.805900)  Chile.
   Observer R. Holmes. 0.61-m f/6.5 astrograph + CCD.
(F51) Pan-STARRS 1, Haleakala  (N20.707234 W156.255910)  US/Hawaii.
   Observers J. Bulger, T. Lowe, A. Schultz, M. Willman. Measurers K.
   Chambers, S. Chastel, T. de Boer, L. Denneau, J. Fairlamb, H. Flewelling,
   M. Huber, C.-C. Lin, E. Magnier, Y. Ramanjooloo, R. Wainscoat, R. Weryk.
   1.8-m Ritchey-Chrétien + CCD.
(T14) Mauna Kea-UH/Tholen NEO Follow-Up (CFHT)  (N19.825252 W155.468876)
   US/Hawaii.  Observer R. Weryk. 3.6-m Canada-France-Hawaii Telescope.

Orbital elements:  P11Zu8t
   Perihelion 2024 Oct 21.94287 +/- 1.93 TT = 22:37:43 (JD 2460605.44287)
Epoch 2024 Oct  2.0 TT = JDT 2460585.5   Earth MOID: 0.6913      AutoNEOCP
M 355.64674062 +/- 0.41             (J2000 ecliptic)
n   0.21828653 +/- 0.00109          Peri.  295.49991 +/- 1.5
a   2.73181583 +/- 0.00911          Node    87.10492 +/- 0.44
e   0.4045861 +/- 0.00146           Incl.   14.62580 +/- 0.044
P   4.51520                H 20.67  G  0.15   U  8.2
q 1.62656110 +/- 0.00246    Q 3.83707055 +/- 0.0165
From 9 observations 2024 Sept. 28-Oct. 2; mean residual 0".06
Residuals in arcseconds: 
240928 F51  .00   .03+    240929 T14  .00   .00     241002 807  .05+  .16+    
240928 F51  .10-  .01+    240929 T14  .00   .00     241002 807  .05-  .06-    
240928 F51  .10+  .03-    240929 T14  .00   .00     241002 807  .01-  .09-    

Ephemerides (geocentric):
Date (UTC) HH   RA             Dec           delta  r     elong  mag " sig PA
---- --------  ------------   ------------  ------ ------ -----  --- --------
2024 10 02 07  01 56 57.074   -24 52 49.46  .71104 1.6353 145.1 22.0 .157 160
2024 10 02 08  01 56 55.979   -24 52 52.34  .71097 1.6352 145.1 22.0 .163 160
2024 10 02 09  01 56 54.881   -24 52 55.16  .71090 1.6352 145.1 22.0 .170 160
2024 10 02 10  01 56 53.779   -24 52 57.93  .71083 1.6351 145.1 22.0 .177 160
2024 10 02 11  01 56 52.674   -24 53 00.65  .71076 1.6351 145.1 22.0 .184 160
2024 10 02 12  01 56 51.566   -24 53 03.31  .71069 1.6351 145.1 22.0 .191 160
2024 10 02 13  01 56 50.454   -24 53 05.93  .71062 1.6350 145.1 22.0 .198 160
2024 10 02 14  01 56 49.340   -24 53 08.49  .71055 1.6350 145.1 22.0 .206 160
2024 10 02 15  01 56 48.222   -24 53 11.00  .71048 1.6350 145.1 22.0 .213 160
2024 10 02 16  01 56 47.101   -24 53 13.45  .71041 1.6349 145.1 22.0 .221 160
2024 10 02 17  01 56 45.977   -24 53 15.86  .71034 1.6349 145.2 22.0 .228 160
2024 10 02 18  01 56 44.850   -24 53 18.21  .71027 1.6349 145.2 22.0 .236 160
2024 10 02 19  01 56 43.719   -24 53 20.51  .71020 1.6348 145.2 22.0 .244 160
2024 10 02 20  01 56 42.586   -24 53 22.76  .71013 1.6348 145.2 22.0 .252 160
2024 10 02 21  01 56 41.449   -24 53 24.95  .71006 1.6348 145.2 22.0 .260 160
2024 10 02 22  01 56 40.309   -24 53 27.09  .70999 1.6347 145.2 22.0 .269 160
2024 10 02 23  01 56 39.166   -24 53 29.18  .70992 1.6347 145.2 22.0 .277 160
2024 10 03 00  01 56 38.020   -24 53 31.21  .70986 1.6346 145.2 22.0 .286 160
2024 10 03 01  01 56 36.870   -24 53 33.19  .70979 1.6346 145.2 22.0 .294 160
2024 10 03 02  01 56 35.718   -24 53 35.12  .70972 1.6346 145.2 22.0 .303 160
2024 10 03 03  01 56 34.562   -24 53 37.00  .70965 1.6345 145.2 22.0 .312 160
2024 10 03 04  01 56 33.404   -24 53 38.82  .70959 1.6345 145.3 22.0 .321 160
2024 10 03 05  01 56 32.242   -24 53 40.59  .70952 1.6345 145.3 22.0 .330 160
2024 10 03 06  01 56 31.077   -24 53 42.31  .70945 1.6344 145.3 22.0 .339 161
2024 10 03 07  01 56 29.909   -24 53 43.97  .70939 1.6344 145.3 22.0 .349 161
2024 10 03 08  01 56 28.738   -24 53 45.58  .70932 1.6344 145.3 22.0 .358 161
2024 10 03 09  01 56 27.563   -24 53 47.13  .70925 1.6343 145.3 22.0 .368 161
2024 10 03 10  01 56 26.386   -24 53 48.64  .70919 1.6343 145.3 22.0 .377 161
2024 10 03 11  01 56 25.206   -24 53 50.08  .70912 1.6343 145.3 22.0 .387 161
2024 10 03 12  01 56 24.023   -24 53 51.48  .70906 1.6342 145.3 22.0 .397 161
2024 10 03 13  01 56 22.836   -24 53 52.82  .70899 1.6342 145.3 22.0 .407 161
2024 10 03 14  01 56 21.647   -24 53 54.11  .70893 1.6342 145.3 22.0 .417 161
2024 10 03 15  01 56 20.454   -24 53 55.34  .70887 1.6341 145.4 22.0 .428 161
2024 10 03 16  01 56 19.259   -24 53 56.52  .70880 1.6341 145.4 22.0 .438 161
2024 10 03 17  01 56 18.060   -24 53 57.65  .70874 1.6341 145.4 22.0 .449 161
2024 10 03 18  01 56 16.858   -24 53 58.72  .70867 1.6340 145.4 22.0 .459 161
2024 10 03 19  01 56 15.654   -24 53 59.73  .70861 1.6340 145.4 22.0 .470 161
2024 10 03 20  01 56 14.446   -24 54 00.70  .70855 1.6340 145.4 22.0 .481 161
2024 10 03 21  01 56 13.235   -24 54 01.60  .70849 1.6339 145.4 22.0 .492 161
2024 10 03 22  01 56 12.022   -24 54 02.46  .70842 1.6339 145.4 22.0 .503 161
2024 10 03 23  01 56 10.805   -24 54 03.26  .70836 1.6339 145.4 22.0 .514 161
2024 10 04 00  01 56 09.586   -24 54 04.00  .70830 1.6338 145.4 22.0 .525 161
2024 10 04 01  01 56 08.363   -24 54 04.69  .70824 1.6338 145.4 22.0 .537 161
2024 10 04 02  01 56 07.138   -24 54 05.33  .70818 1.6338 145.4 22.0 .548 161
2024 10 04 03  01 56 05.909   -24 54 05.91  .70811 1.6337 145.5 22.0 .560 161
2024 10 04 04  01 56 04.678   -24 54 06.44  .70805 1.6337 145.5 22.0 .572 161
2024 10 04 05  01 56 03.443   -24 54 06.91  .70799 1.6337 145.5 22.0 .584 161
2024 10 04 06  01 56 02.206   -24 54 07.33  .70793 1.6336 145.5 22.0 .596 161